Flag for China Weather past 2 weeks in Xiamen, Fujian, China

Now
88 °F

Scattered clouds.


Feels Like: 105 °F
Forecast: 80 / 88 °F
Wind: 3 mph from North

Location: Xiamen Airport

Current Time: May 28, 2015 at 12:30:03 PM

Latest Report: May 28, 2015 at 11:00 AM


Visibility: 6 mi

Pressure: 29.68 "Hg

Humidity: 79%

Dew point: 81 °F

Location of XiamenLocation

Historic Weather in Xiamen — Graph

°F

Xiamen temperature yesterday

Maximum temperature yesterday: 82 °F (at 4:00 PM)
Minimum temperature yesterday: 70 °F (at 3:00 AM)
Average temperature yesterday: 76 °F

Past Weeks' High & Low Weather Summary

 TemperatureHumidityPressure
High91 °F (May 16, 2:00 PM)100% (May 15, 2:00 AM)29.95 "Hg (May 15, 2:00 AM)
Low64 °F (May 21, 12:00 PM)40% (May 13, 2:00 PM)29.65 "Hg (May 19, 4:00 PM)
Average77 °F89%29.80 "Hg
* Reported May 13 11:00 AM — May 28 11:00 AM, Xiamen, Weather by CustomWeather, © 2015

Note: Actual official high and low records may vary slightly from our data, if they occured in-between our weather recording intervals... More about our weather records

Advertising

Xiamen weather history for previous 24 hours

 ConditionsComfort  
Time TempWeatherWind HumidityBarometerVisibility
11:00 AM
Thu, May 28
88 °FScattered clouds.3 mph79%29.68 "Hg6 mi
10:00 AM86 °FScattered clouds.3 mph84%29.71 "Hg4 mi
9:00 AM84 °FScattered clouds.6 mph89%29.71 "Hg4 mi
8:00 AM82 °FFog.1 mph94%29.71 "Hg2 mi
7:00 AM79 °FFog.1 mph100%29.71 "Hg2 mi
6:00 AM77 °FFog.1 mph100%29.68 "Hg1 mi
5:00 AM77 °FFog.1 mph100%29.65 "Hg1 mi
4:00 AM77 °FFog.1 mph100%29.68 "Hg2 mi
3:00 AM77 °FFog.3 mph100%29.65 "Hg2 mi
2:00 AM77 °FFog.3 mph100%29.68 "Hg2 mi
1:00 AM77 °FFog.1 mph100%29.68 "Hg2 mi
12:00 AM77 °FFog.1 mph100%29.71 "Hg3 mi
11:00 PM
Wed, May 27
77 °FFog.1 mph100%29.71 "Hg3 mi
10:00 PM79 °FFog.1 mph94%29.71 "Hg3 mi
9:00 PM77 °FFog.3 mph100%29.71 "Hg3 mi
8:00 PM77 °FFog.3 mph100%29.71 "Hg3 mi
7:00 PM79 °FMostly cloudy.3 mph94%29.71 "Hg4 mi
6:00 PM81 °FScattered clouds.6 mph89%29.68 "Hg4 mi
5:00 PM81 °FPassing clouds.8 mph89%29.68 "Hg4 mi
4:00 PM82 °FScattered clouds.8 mph84%29.68 "Hg4 mi
3:00 PM81 °FScattered clouds.6 mph89%29.71 "Hg4 mi
2:00 PM79 °FBroken clouds.3 mph94%29.74 "Hg4 mi
1:00 PM79 °FCloudy.3 mph94%29.77 "Hg4 mi
12:00 PM79 °FBroken clouds.6 mph89%29.80 "Hg4 mi
Weather by CustomWeather, © 2015

See weather overviewHow to use our weather pages